Weather History for LGKR - January, 2013

Change the Weather History Date:

Saturday, January 26, 2013

  Actual Average Record
Temperature  
Mean Temperature 52 °F -  
Max Temperature 57 °F 58 °F 62 °F (2002)
Min Temperature 48 °F 42 °F 24 °F (2006)
Degree Days  
Heating Degree Days 12    
Growing Degree Days 2 (Base 50)    
Moisture  
Dew Point 48 °F    
Average Humidity 87    
Maximum Humidity 94    
Minimum Humidity 72    
Precipitation  
Precipitation 0.00 in 0.18 in - ()
Sea Level Pressure  
Sea Level Pressure 29.48 in    
Wind  
Wind Speed 7 mph ()    
Max Wind Speed 14 mph    
Max Gust Speed -    
Visibility 6.3 miles    
Events Rain    
Averages and records for this station are not official NWS values.
T = Trace of Precipitation, MM = Missing Value Source: Averaged Metar Reports

Daily Weather History Graph

Daily Weather History Graph

Search for Another Location

Airport or City:

Trip Planner

Search our weather history database for the weather conditions in past years. The results will help you decide how hot, cold, wet, or windy it might be!

Date:

Astronomy

Jan. 26, 2013 Rise Set
Actual Time 7:53 AM EET 5:53 PM EET
Civil Twilight 7:24 AM EET 6:22 PM EET
Nautical Twilight 6:51 AM EET 6:54 PM EET
Astronomical Twilight 6:19 AM EET 7:26 PM EET
Moon 5:30 PM EET (1/26) 6:59 AM EET (1/26)
Length of Visible Light 10h 57m
Length of Day
10h 00m
Waxing Gibbous, 99% of the Moon is Illuminated
Jan 26
Waxing Gibbous
Jan 27
Full
Feb 3
Last Quarter
Feb 10
New
Feb 17
First Quarter

Hourly Weather History & Observations

Time (EET) Temp. Dew Point Humidity Pressure Visibility Wind Dir Wind Speed Gust Speed Precip Events Conditions
12:20 AM 50.0 °F 46.4 °F 87% 29.42 in 6.2 mi East 11.5 mph - N/A Rain Light Rain
12:50 AM 50.0 °F 46.4 °F 87% 29.42 in 6.2 mi East 10.4 mph - N/A Rain Light Rain
1:20 AM 48.2 °F 46.4 °F 93% 29.42 in 6.2 mi East 8.1 mph - N/A Rain Light Rain
1:50 AM 50.0 °F 46.4 °F 87% 29.42 in 6.2 mi East 6.9 mph - N/A   Mostly Cloudy
2:00 AM 50 °F 46 °F 82% 29.42 in 6 mi East 6.9 mph - - Rain Light Rain
2:20 AM 50.0 °F 46.4 °F 87% 29.42 in 6.2 mi ESE 6.9 mph - N/A   Mostly Cloudy
2:50 AM 50.0 °F 46.4 °F 87% 29.42 in 6.2 mi East 8.1 mph - N/A   Mostly Cloudy
3:20 AM 50.0 °F 46.4 °F 87% 29.42 in 6.2 mi ESE 8.1 mph - N/A   Mostly Cloudy
3:50 AM 51.8 °F 44.6 °F 76% 29.42 in 6.2 mi East 5.8 mph - N/A   Mostly Cloudy
4:20 AM 51.8 °F 44.6 °F 76% 29.42 in 6.2 mi East 6.9 mph - N/A   Mostly Cloudy
4:50 AM 51.8 °F 44.6 °F 76% 29.39 in 6.2 mi ENE 5.8 mph - N/A   Mostly Cloudy
5:20 AM 51.8 °F 44.6 °F 76% 29.39 in 6.2 mi North 3.5 mph - N/A   Mostly Cloudy
5:50 AM 50.0 °F 48.2 °F 94% 29.39 in 6.2 mi ENE 3.5 mph - N/A Rain Light Rain
6:20 AM 50.0 °F 48.2 °F 94% 29.39 in 6.2 mi East 4.6 mph - N/A Rain Light Rain
6:50 AM 50.0 °F 48.2 °F 94% 29.42 in 6.2 mi ESE 8.1 mph - N/A Rain Light Rain
7:20 AM 50.0 °F 48.2 °F 94% 29.42 in 6.2 mi SE 5.8 mph - N/A Rain Light Rain
7:50 AM 50.0 °F 48.2 °F 94% 29.42 in 6.2 mi ESE 5.8 mph - N/A Rain Light Rain
8:00 AM 49 °F 48 °F 94% 29.44 in 6 mi ESE 5.8 mph - - Rain Light Rain
8:20 AM 50.0 °F 48.2 °F 94% 29.42 in 6.2 mi East 3.5 mph - N/A Rain Light Rain
8:50 AM 50.0 °F 48.2 °F 94% 29.44 in 6.2 mi Calm Calm - N/A Rain Light Rain
9:20 AM 50.0 °F 48.2 °F 94% 29.44 in 6.2 mi Calm Calm - N/A   Mostly Cloudy
9:50 AM 50.0 °F 48.2 °F 94% 29.44 in 6.2 mi Calm Calm - N/A   Mostly Cloudy
10:20 AM 50.0 °F 48.2 °F 94% 29.44 in 6.2 mi Calm Calm - N/A   Mostly Cloudy
10:50 AM 51.8 °F 48.2 °F 88% 29.47 in 6.2 mi North 8.1 mph - N/A   Mostly Cloudy
11:20 AM 51.8 °F 48.2 °F 88% 29.47 in 6.2 mi North 8.1 mph - N/A   Mostly Cloudy
11:50 AM 51.8 °F 48.2 °F 88% 29.47 in 6.2 mi North 8.1 mph - N/A   Mostly Cloudy
12:20 PM 53.6 °F 48.2 °F 82% 29.47 in 6.2 mi North 9.2 mph - N/A   Mostly Cloudy
12:50 PM 51.8 °F 48.2 °F 88% 29.47 in 6.2 mi North 8.1 mph - N/A   Mostly Cloudy
1:20 PM 55.4 °F 46.4 °F 72% 29.50 in 6.2 mi North 8.1 mph - N/A   Mostly Cloudy
1:50 PM 57.2 °F 50.0 °F 77% 29.50 in 6.2 mi NNW 10.4 mph - N/A   Mostly Cloudy
2:00 PM 57 °F 50 °F 72% 29.52 in 12 mi NNW 10.4 mph - -   Partly Cloudy
2:20 PM 57.2 °F 50.0 °F 77% 29.50 in 6.2 mi NNW 13.8 mph - N/A   Mostly Cloudy
2:50 PM 55.4 °F 50.0 °F 82% 29.50 in 6.2 mi NW 12.7 mph - N/A   Mostly Cloudy
3:20 PM 55.4 °F 50.0 °F 82% 29.50 in 6.2 mi NNW 13.8 mph - N/A   Mostly Cloudy
3:50 PM 55.4 °F 50.0 °F 82% 29.50 in 6.2 mi North 11.5 mph - N/A   Mostly Cloudy
4:20 PM 55.4 °F 50.0 °F 82% 29.50 in 6.2 mi North 11.5 mph - N/A   Mostly Cloudy
4:50 PM 55.4 °F 50.0 °F 82% 29.50 in 6.2 mi NW 11.5 mph - N/A   Mostly Cloudy
5:20 PM 55.4 °F 50.0 °F 82% 29.50 in 6.2 mi NW 11.5 mph - N/A   Mostly Cloudy
5:50 PM 51.8 °F 48.2 °F 88% 29.53 in 6.2 mi NW 8.1 mph - N/A   Mostly Cloudy
6:20 PM 51.8 °F 48.2 °F 88% 29.53 in 6.2 mi NW 8.1 mph - N/A   Mostly Cloudy
6:50 PM 50.0 °F 48.2 °F 94% 29.53 in 6.2 mi WNW 5.8 mph - N/A   Mostly Cloudy
7:20 PM 50.0 °F 48.2 °F 94% 29.53 in 6.2 mi West 4.6 mph - N/A   Mostly Cloudy
7:50 PM 50.0 °F 46.4 °F 87% 29.56 in 6.2 mi West 4.6 mph - N/A   Mostly Cloudy
8:00 PM 50 °F 47 °F 85% 29.57 in 6 mi West 4.6 mph - -   Partly Cloudy
8:20 PM 50.0 °F 46.4 °F 87% 29.56 in 6.2 mi West 4.6 mph - N/A   Mostly Cloudy
8:50 PM 48.2 °F 46.4 °F 93% 29.59 in 6.2 mi Calm Calm - N/A   Mostly Cloudy
9:20 PM 48.2 °F 46.4 °F 93% 29.59 in 6.2 mi WNW 4.6 mph - N/A   Mostly Cloudy
9:50 PM 48.2 °F 46.4 °F 93% 29.59 in 6.2 mi SW 4.6 mph - N/A   Scattered Clouds
10:20 PM 48.2 °F 46.4 °F 93% 29.59 in 6.2 mi WSW 4.6 mph - N/A   Scattered Clouds
10:50 PM 48.2 °F 46.4 °F 93% 29.62 in 6.2 mi Calm Calm - N/A   Scattered Clouds
11:20 PM 48.2 °F 46.4 °F 93% 29.62 in 6.2 mi Calm Calm - N/A   Scattered Clouds
11:50 PM 48.2 °F 44.6 °F 87% 29.65 in 6.2 mi West 4.6 mph - N/A   Mostly Cloudy